Weather in Badalona

Spain     41°26′58″N   2°14′43″E
temp.,
°C
wind,
m/s
gust,
m/s
humid.,
%
clouds,
%
prec.,
mm/h
press.,
hPa
HPBL,
m
18 january, tue
tue1801:00+7nw23390 0.0 103081
04:00+6nw33430 0.0 102980
07:00+6nw23450 0.0 102976
10:00+8n11370 0.0 1030103
13:00+11e23390 0.0 1031490
16:00+11ese33650 0.0 1030618
19:00+9e22760 0.0 1031117
22:00+8ne11810 0.0 103287
19 january, wed
wed1901:00+8nnw11800 0.0 103365
04:00+7nnw11700 0.0 103244
07:00+6nw22580 0.0 103140
10:00+8nw11470 0.0 103295
13:00+11s11390 0.0 1031439
16:00+11sse22440 0.0 1030685
19:00+9se11690 0.0 1030158
22:00
20 january, thu
thu2001:00+7nnw217648 0.0 103054
04:00+7nw22730 0.0 102949
07:00
10:00+7nw22531 0.0 1029136
13:00+11w34370 0.0 1027494
16:00+13wsw34340 0.0 1024830
19:00+10w23470 0.0 1024143
22:00+8n22550 0.0 102482
21 january, fri
fri2101:00+7n22630 0.0 102387
04:00+7nnw22660 0.0 102371
07:00+6nnw22678 0.0 102255
10:00+7nw225610 0.0 1024147
13:00+10sw224620 0.0 1024532
16:00+10sse325316 0.0 1024680
19:00+8sse128358 0.0 1025423
22:00+9w237296 0.1 1027559
22 january, sat
sat2201:00+8wnw346248 0.3 1028367
04:00+6nw236038 0.0 1028207
07:00+5nw22601 0.0 1028140
10:00+5wnw22510 0.0 1030232
13:00+9wsw22350 0.0 1029503
16:00+10s22330 0.0 1027781
19:00+8s12490 0.0 1028115
22:00+7wnw11500 0.0 1029109